Weather in Syuzyum

Russia / Penza Oblast     53°08′52″N   46°11′47″E
temp.,
°C
wind,
m/s
gust,
m/s
humid.,
%
clouds,
%
prec.,
mm/h
press.,
hPa
HPBL,
m
25 february, thu
thu2500:00−23w229095 0.0 103825
03:00−22ssw249198 0.0 1036126
06:00−21ssw3787100 0.0 1033230
09:00−19s4996100 0.4 1030301
12:00−15ssw61194100 0.9 1027485
15:00−13ssw71294100 2.4 1023603
18:00−12ssw61294100 1.7 1019603
21:00−10ssw51194100 2.4 1017445
26 february, fri
fri2600:00−9ssw3795100 0.6 1014267
03:00−6sw2496100 1.0 1014153
06:00−4wsw229899 0.2 101228
09:00+1w38100100 0.8 1013298
12:00+1wsw37100100 0.1 1011340
15:00+1ssw49100100 1.4 1009282
18:00+2wsw51298100 1.0 1006429
21:00+2wsw61498100 1.9 1002537
27 february, sat
sat2700:00+2w61497100 1.6 1001745
03:00+1w51287100 1.6 1002970
06:000w61297100 0.1 10011021
09:000w61295100 0.4 10001061
12:00+1w6109292 0.3 10001042
15:000w5109695 0.4 999868
18:00−1wsw41097100 0.3 999518
21:00−2wsw4109698 0.7 1001497
28 february, sun
sun2800:00−8nnw51093100 0.5 1002489
03:00−12nnw4109298 0.6 1006535
06:00−15nnw41093100 0.0 1008412
09:00−14nnw489199 0.1 1010417
12:00−11nnw588799 0.0 1011532
15:00−11nnw5988100 0.1 1012547
18:00−13nnw4993100 0.0 1014424
21:00−15nnw4109498 0.1 1017386
1 march, mon
mon100:00−16nnw389687 0.0 1019238
03:00−17nnw389789 0.0 1020250
06:00−17nnw4109697 0.0 1022335
09:00−16n489197 0.0 1024388
12:00−12nnw478795 0.0 1025493
15:00−11nnw478692 0.0 1025512
18:00−15nw259569 0.0 1026105
21:00−16w239737 0.0 102655